Date String (YYYY-MM-DD hh:mm:ss) UTC,Instrument flags,Ambient pressure (hPa),Sample flow (lpm),Bypass flow (lpm),Sample temperature (°C),Ambient temperature (°C),ASC tube jacket temperature (°C),LED temperature (°C),Box temperature (°C),Sample RH (%),Span deviation,Mass concentration (μg/m³),Mass concentration (μg/m³),Mass concentration (μg/m³)
DateTimeUTC,F1_M11,P_M11,Q1_M11,Q2_M11,T1_M11,T2_M11,T3_M11,T4_M11,T5_M11,U1_M11,ZSPAN_M11,X0_M11,X2_M11,X1_M11
2022-10-23 03:00:00,,0808.5,4.99,0.00,30.1,28.8,00.0,38.9,32.0,08.0,0000.0,0007.88,0002.66,0001.52
2022-10-23 03:01:00,,0808.4,5.01,0.00,30.1,28.8,00.0,38.9,32.0,08.1,0000.0,0007.80,0002.55,0001.52
2022-10-23 03:02:00,,0808.4,5.00,0.00,30.1,28.8,00.0,38.9,32.1,08.1,0000.0,0008.21,0002.57,0001.52
2022-10-23 03:03:00,,0808.4,5.00,0.00,30.2,28.9,00.0,38.9,32.1,08.0,0000.0,0008.02,0002.61,0001.51
2022-10-23 03:04:00,,0808.4,5.00,0.00,30.2,28.6,00.0,38.9,32.0,08.0,0000.0,0007.89,0002.59,0001.51
2022-10-23 03:05:00,,0808.5,4.98,0.00,30.2,26.9,00.0,38.9,31.9,08.0,0000.0,0007.96,0002.53,0001.50
2022-10-23 03:06:00,,0808.5,5.01,0.00,30.1,26.3,00.0,38.8,31.8,07.9,0000.0,0008.93,0002.52,0001.50
2022-10-23 03:07:00,,0808.5,5.00,0.00,30.0,26.4,00.0,38.8,31.6,07.9,0000.0,0009.92,0002.51,0001.50
2022-10-23 03:08:00,,0808.5,4.99,0.00,29.9,26.8,00.0,38.7,31.5,08.0,0000.0,0009.99,0002.44,0001.50
2022-10-23 03:09:00,,0808.6,5.01,0.00,29.9,27.1,00.0,38.7,31.5,08.3,0000.0,0010.04,0002.45,0001.49
2022-10-23 03:10:00,,0808.7,5.01,0.00,29.8,27.4,00.0,38.7,31.5,08.5,0000.0,0009.79,0002.43,0001.48
2022-10-23 03:11:00,,0808.6,4.99,0.00,29.8,27.7,00.0,38.7,31.6,08.6,0000.0,0009.63,0002.46,0001.48
2022-10-23 03:12:00,,0808.6,4.99,0.00,29.8,27.8,00.0,38.7,31.6,08.7,0000.0,0009.61,0002.55,0001.49
2022-10-23 03:13:00,,0808.5,5.00,0.00,29.8,28.0,00.0,38.7,31.6,08.6,0000.0,0009.57,0002.60,0001.50
2022-10-23 03:14:00,,0808.4,5.00,0.00,29.8,28.1,00.0,38.7,31.6,08.6,0000.0,0009.99,0002.60,0001.50
2022-10-23 03:15:00,,0808.5,5.00,0.00,29.8,28.2,00.0,38.7,31.6,08.4,0000.0,0010.84,0002.59,0001.50
2022-10-23 03:16:00,,0808.5,5.02,0.00,29.8,28.2,00.0,38.7,31.7,08.3,0000.0,0010.67,0002.63,0001.50
2022-10-23 03:17:00,,0808.5,4.98,0.00,29.8,28.3,00.0,38.7,31.7,08.4,0000.0,0009.83,0002.65,0001.49
2022-10-23 03:18:00,,0808.5,5.00,0.00,29.8,28.4,00.0,38.7,31.7,08.4,0000.0,0008.97,0002.68,0001.49
2022-10-23 03:19:00,,0808.5,5.01,0.00,29.8,28.4,00.0,38.7,31.7,08.3,0000.0,0008.77,0002.63,0001.47
2022-10-23 03:20:00,,0808.5,5.01,0.00,29.8,28.4,00.0,38.7,31.7,08.2,0000.0,0008.49,0002.57,0001.46
2022-10-23 03:21:00,,0808.5,4.99,0.00,29.9,28.5,00.0,38.7,31.8,08.1,0000.0,0008.35,0002.52,0001.45
2022-10-23 03:22:00,,0808.5,5.02,0.00,29.9,28.5,00.0,38.7,31.8,08.1,0000.0,0008.22,0002.47,0001.45
2022-10-23 03:23:00,,0808.5,4.98,0.00,29.9,28.5,00.0,38.7,31.8,08.2,0000.0,0007.96,0002.47,0001.43
2022-10-23 03:24:00,,0808.4,5.00,0.00,29.9,28.6,00.0,38.7,31.8,08.3,0000.0,0007.62,0002.41,0001.41
2022-10-23 03:25:00,,0808.4,5.00,0.00,29.9,28.6,00.0,38.7,31.8,08.3,0000.0,0007.89,0002.37,0001.41
2022-10-23 03:26:00,,0808.4,5.01,0.00,29.9,28.6,00.0,38.7,31.9,08.2,0000.0,0007.41,0002.36,0001.39
2022-10-23 03:27:00,,0808.4,5.00,0.00,29.9,28.6,00.0,38.7,31.9,08.2,0000.0,0007.65,0002.35,0001.38
2022-10-23 03:28:00,,0808.4,5.00,0.00,30.0,28.6,00.0,38.8,31.9,08.1,0000.0,0008.18,0002.30,0001.37
2022-10-23 03:29:00,,0808.5,5.00,0.00,30.0,28.6,00.0,38.8,31.9,08.2,0000.0,0008.12,0002.24,0001.38
2022-10-23 03:30:00,,0808.4,5.01,0.00,30.0,28.6,00.0,38.8,31.9,08.2,0000.0,0008.20,0002.26,0001.39
2022-10-23 03:31:00,,0808.5,5.00,0.00,30.0,28.6,00.0,38.8,31.9,08.1,0000.0,0009.47,0002.25,0001.39
2022-10-23 03:32:00,,0808.5,5.00,0.00,30.0,28.7,00.0,38.8,31.9,08.1,0000.0,0009.67,0002.28,0001.40
2022-10-23 03:33:00,,0808.4,5.00,0.00,30.0,28.7,00.0,38.8,31.9,08.1,0000.0,0009.61,0002.23,0001.39
2022-10-23 03:34:00,,0808.4,5.01,0.00,30.0,28.7,00.0,38.8,32.0,08.1,0000.0,0009.60,0002.15,0001.39
2022-10-23 03:35:00,,0808.5,5.00,0.00,30.1,28.7,00.0,38.8,32.0,08.1,0000.0,0009.91,0002.19,0001.39
2022-10-23 03:36:00,,0808.4,4.99,0.00,30.1,28.8,00.0,38.9,32.0,08.1,0000.0,0009.37,0002.14,0001.39
2022-10-23 03:37:00,,0808.4,5.00,0.00,30.1,28.8,00.0,38.9,32.0,08.1,0000.0,0009.49,0002.17,0001.40
2022-10-23 03:38:00,,0808.5,5.00,0.00,30.1,28.7,00.0,38.9,32.0,08.1,0000.0,0010.02,0002.17,0001.40
2022-10-23 03:39:00,,0808.4,5.00,0.00,30.1,28.7,00.0,38.9,32.0,08.1,0000.0,0009.89,0002.23,0001.40
2022-10-23 03:40:00,,0808.4,5.00,0.00,30.1,28.7,00.0,38.9,32.0,08.1,0000.0,0009.85,0002.20,0001.40
2022-10-23 03:41:00,,0808.4,5.00,0.00,30.1,28.7,00.0,38.9,32.0,08.1,0000.0,0010.25,0002.19,0001.41
2022-10-23 03:42:00,,0808.5,4.99,0.00,30.1,28.7,00.0,38.9,32.0,08.1,0000.0,0009.04,0002.24,0001.41
2022-10-23 03:43:00,,0808.4,5.00,0.00,30.1,28.7,00.0,38.9,32.0,08.1,0000.0,0008.98,0002.26,0001.42
2022-10-23 03:44:00,,0808.4,4.99,0.00,30.1,28.7,00.0,38.9,32.0,08.1,0000.0,0009.84,0002.28,0001.43
2022-10-23 03:45:00,,0808.3,5.00,0.00,30.1,28.8,00.0,38.9,32.0,08.2,0000.0,0010.39,0002.31,0001.44
2022-10-23 03:46:00,,0808.3,5.00,0.00,30.1,28.7,00.0,39.0,32.0,08.1,0000.0,0010.46,0002.27,0001.43
2022-10-23 03:47:00,,0808.5,5.00,0.00,30.1,28.6,00.0,39.0,32.0,08.1,0000.0,0009.85,0002.26,0001.43
2022-10-23 03:48:00,,0808.4,5.01,0.00,30.1,28.6,00.0,39.0,31.9,08.1,0000.0,0009.48,0002.24,0001.44
2022-10-23 03:49:00,,0808.5,4.99,0.00,30.1,28.6,00.0,39.0,31.9,08.1,0000.0,0008.82,0002.24,0001.45
2022-10-23 03:50:00,,0808.5,5.00,0.00,30.1,28.6,00.0,39.0,31.9,08.1,0000.0,0008.25,0002.21,0001.46
2022-10-23 03:51:00,,0808.4,5.00,0.00,30.1,28.6,00.0,39.0,31.9,08.1,0000.0,0008.26,0002.22,0001.46
2022-10-23 03:52:00,,0808.4,4.99,0.00,30.1,28.6,00.0,39.0,31.9,08.1,0000.0,0007.61,0002.23,0001.46
2022-10-23 03:53:00,,0808.4,5.00,0.00,30.1,28.6,00.0,39.0,31.9,08.1,0000.0,0007.53,0002.19,0001.47
2022-10-23 03:54:00,,0808.4,5.00,0.00,30.1,28.7,00.0,39.0,32.0,08.1,0000.0,0007.53,0002.23,0001.48
2022-10-23 03:55:00,,0808.4,5.00,0.00,30.1,28.7,00.0,39.0,32.0,08.1,0000.0,0006.13,0002.24,0001.48
2022-10-23 03:56:00,,0808.3,5.00,0.00,30.1,28.7,00.0,39.0,32.0,08.1,0000.0,0005.35,0002.26,0001.49
2022-10-23 03:57:00,,0808.3,5.00,0.00,30.1,28.8,00.0,39.0,32.0,08.1,0000.0,0004.53,0002.28,0001.50
2022-10-23 03:58:00,,0808.3,5.01,0.00,30.2,28.8,00.0,39.0,32.0,08.1,0000.0,0004.52,0002.28,0001.51
2022-10-23 03:59:00,,0808.3,5.00,0.00,30.2,28.4,00.0,39.0,32.0,08.2,0000.0,0004.60,0002.28,0001.50
